Regional Weather Roundup
Issued by NWS Portland, ME

Current Version | Previous Version | Text Only | Print | Product List | Glossary Off
Versions: 1 2 3 4 5 6 7 8 9 10 11 12 13 14 15 16 17 18 19 20 21 22 23 24 25 26 27 28 29 30 31 32 33 34 35 36 37 38 39 40 41 42 43 44 45 46 47 48 49 50

000
ASUS41 KGYX 050210
RWRGYX
WEATHER ROUNDUP FOR MAINE AND NEW HAMPSHIRE
NATIONAL WEATHER SERVICE GRAY ME
1000 PM EDT MON MAY 04 2015

MEZ002-005-006-010-012-015-018-020-021-024-026-027-029-050300-
MAINE

CITY           SKY/WX    TMP DP  RH WIND       PRES   REMARKS
PORTLAND       PTCLDY    66  45  46 S6        30.01R
SANFORD        PTCLDY    72  41  33 SW9G17    30.03S
BAR HARBOR     PTCLDY    50  46  87 SW7       30.02F
WISCASSET      PTCLDY    63  43  48 SW8       30.02S
ROCKLAND       PTCLDY    61  43  51 SW14G25   30.00F
FRYEBURG       CLOUDY    67  44  43 SW7       30.00R
LEWISTONAUBURN PTCLDY    66  45  45 S10       29.99S
AUGUSTA        PTCLDY    61  43  51 S8        29.98F
WATERVILLE     PTCLDY    63  43  48 S6        29.95F
BANGOR         MOCLDY    57  44  62 S10       29.97F
GREENVILLE       N/A     63  42  46 CALM      29.94S
MILLINOCKET    MOCLDY    70  41  34 VRB5      29.91F
HOULTON        CLOUDY    67  40  37 S10       29.88F
PRESQUE ISLE   MOCLDY    68  39  34 S12       29.83F
FRENCHVILLE    CLOUDY    69  38  32 SW14G22   29.80F
CARIBOU        MOCLDY    70  42  36 S12G23    29.81F
$$

NHZ002-005-008-009-011-012-014-050300-
NEW HAMPSHIRE

CITY           SKY/WX    TMP DP  RH WIND       PRES   REMARKS
PORTSMOUTH     MOCLDY    74  39  28 SW12      30.02S
ROCHESTER      PTCLDY    73  41  31 VRB5      30.03R
NASHUA         CLEAR     74  40  29 VRB5      30.07S
MANCHESTER     MOCLDY    74  39  28 S13       30.04S
CONCORD        PTCLDY    74  40  29 SW12      30.04R
LACONIA        CLOUDY    73  41  31 SW14G24   30.00R
PLYMOUTH       CLOUDY    67  51  56 CALM      30.00S
BERLIN         CLOUDY    73  38  27 NW6       30.01R
WHITEFIELD     CLOUDY    73  39  29 W10G18    30.01R
JAFFREY        PTCLDY    68  40  35 S9        30.10S
KEENE          PTCLDY    72  41  33 S10G17    30.07S
LEBANON        CLOUDY    69  44  40 S8        30.00S
MT WASHINGTON  MOCLDY    45  34  65 W48         N/A
$$

VTZ005-007-008-050300-
VERMONT

CITY           SKY/WX    TMP DP  RH WIND       PRES   REMARKS
ST JOHNSBURY     N/A     73  43  33 MISG      30.00R
MONTPELIER     CLOUDY    68  43  40 NW8       30.08R
BURLINGTON     CLOUDY    71  47  42 W12G22    30.02R
$$

MAZ007-012-024-CTZ003-RIZ002-NYZ038-NYZ072-050300-
SOUTHERN NEW ENGLAND AND NY

CITY           SKY/WX    TMP DP  RH WIND       PRES   REMARKS
BOSTON         PTCLDY    70  40  33 SW18G25   30.10S
WORCESTER      CLEAR     67  38  34 SW16      30.12F
NANTUCKET      FAIR      52  49  89 SW13      30.21S
PROVIDENCE     CLEAR     67  39  35 SW13      30.16R
HARTFORD       PTCLDY    70  41  34 S13       30.10R
ALBANY         MOCLDY    77  42  28 W17       30.06R
NEW YORK CITY  PTCLDY    74  42  31 S12       30.15R
$$

ANZ081-ANZ082-ANZ150-NHZ014-MEZ023>029-050300-
COASTAL MARINE OBSERVATIONS

STATION/POSITION TIME  TEMP    WIND        PRES    WAVE
                       AIR SEA DIR/SP/G            HT/PER
                 (UTC) (F)     (DEG/KT/KT) (MB)    (FT/S)
$$

.............KEY..............
   WCI - WIND CHILL
   TC  - TEMPERATURE IN CELSIUS
   VSB - VISIBILITY IN MILES
   HX  - HEAT INDEX
   FAIR- INDICATES FEW OR NO CLOUDS BELOW 12,000 FT, WITH NO
         SIGNIFICANT WEATHER AND/OR OBSTRUCTIONS TO VISIBILITY.





USA.gov is the U.S. government's official web portal to all federal, state and local government web resources and services.